EW7191 Weather Reports


Display with metric or nautical units.
time (UTC)temp
F
wind
direction
speed
MPH
gust
MPH
rain 1hr
in
rain 24hr
in
rain mn
in
humidity
%
barometer
mb
20260510061534 59 124 0.0 0.0 0.00 0.00 0.00 75 1020.3
20260510060034 60 124 0.0 0.0 0.00 0.00 0.00 74 1020.4
20260510054541 61 124 0.0 0.0 0.00 0.00 0.00 71 1020.4
20260510053030 62 124 0.0 0.0 0.00 0.00 0.00 70 1020.4
20260510051534 63 124 0.0 0.0 0.00 0.00 0.00 68 1020.3
20260510050030 64 124 0.0 0.0 0.00 0.00 0.00 67 1020.1
20260510044535 65 124 0.0 0.0 0.00 0.00 0.00 65 1019.9
20260510043028 66 124 0.0 0.0 0.00 0.00 0.00 63 1019.7
20260510041529 67 124 0.0 0.0 0.00 0.00 0.00 62 1019.5
20260510040026 68 124 0.0 0.0 0.00 0.00 0.00 59 1019.2
20260510034526 70 124 0.0 0.0 0.00 0.00 0.00 55 1019.0
20260510033024 73 226 0.0 0.0 0.00 0.00 0.00 51 1018.7
20260510031533 75 269 0.0 0.0 0.00 0.00 0.00 47 1018.6
20260510030028 77 330 0.0 0.0 0.00 0.00 0.00 44 1018.4
20260510024522 78 214 0.0 0.0 0.00 0.00 0.00 42 1018.3
20260510023022 80 282 0.0 0.0 0.00 0.00 0.00 41 1018.2
20260510021529 81 316 0.0 1.0 0.00 0.00 0.00 39 1018.0
20260510020021 82 315 0.0 1.0 0.00 0.00 0.00 38 1018.0
20260510014520 84 354 0.0 5.0 0.00 0.00 0.00 34 1017.9
20260510013019 87 321 0.0 0.0 0.00 0.00 0.00 23 1017.9
20260510011519 88 267 0.0 0.0 0.00 0.00 0.00 23 1017.9
20260510010017 88 263 0.0 0.0 0.00 0.00 0.00 22 1017.9
20260510004516 89 226 0.0 0.0 0.00 0.00 0.00 21 1018.1
20260510003016 89 226 0.0 0.0 0.00 0.00 0.00 21 1018.2
20260510001513 90 262 0.0 0.0 0.00 0.00 0.00 22 1018.3
20260510000018 88 56 0.0 0.0 0.00 0.00 0.00 22 1018.4
20260509234510 88 227 0.0 0.0 0.00 0.00 0.00 23 1018.5
20260509233008 88 255 0.0 0.0 0.00 0.00 0.00 18 1018.5
20260509231507 88 329 0.0 0.0 0.00 0.00 0.00 17 1018.6
20260509230004 88 233 0.0 0.0 0.00 0.00 0.00 20 1018.8
20260509224600 86 256 0.0 0.0 0.00 0.00 0.00 21 1019.0
20260509223101 86 310 0.0 0.0 0.00 0.00 0.00 24 1019.3
20260509221553 85 102 0.0 0.0 0.00 0.00 0.00 25 1019.6
20260509220050 84 247 0.0 0.0 0.00 0.00 0.00 29 1019.7
20260509214548 83 283 0.0 0.0 0.00 0.00 0.00 31 1019.9
20260509213045 82 290 0.0 0.0 0.00 0.00 0.00 34 1020.1
20260509211541 82 271 0.0 0.0 0.00 0.00 0.00 36 1020.4
20260509210049 81 339 0.0 0.0 0.00 0.00 0.00 41 1020.7
20260509204535 80 280 0.0 0.0 0.00 0.00 0.00 42 1020.8
20260509203034 78 249 0.0 0.0 0.00 0.00 0.00 43 1021.0
20260509201529 77 77 0.0 0.0 0.00 0.00 0.00 48 1021.3
20260509200025 76 34 0.0 0.0 0.00 0.00 0.00 48 1021.4
20260509194525 76 292 0.0 0.0 0.00 0.00 0.00 48 1021.7
20260509193018 75 257 0.0 0.0 0.00 0.00 0.00 54 1021.9
20260509191515 73 291 0.0 0.0 0.00 0.00 0.00 51 1022.3
20260509190017 72 293 0.0 0.0 0.00 0.00 0.00 55 1022.4
20260509184516 72 321 0.0 0.0 0.00 0.00 0.00 57 1022.6
20260509183008 70 260 0.0 0.0 0.00 0.00 0.00 54 1023.0
20260509181507 70 331 0.0 0.0 0.00 0.00 0.00 53 1023.1
20260509180001 68 231 0.0 1.0 0.00 0.00 0.00 59 1023.2
20260509174601 66 52 0.0 0.0 0.00 0.00 0.00 60 1023.1
20260509173118 66 297 0.0 0.0 0.00 0.00 0.00 59 1023.5
20260509171553 65 349 0.0 0.0 0.00 0.00 0.00 60 1023.7
20260509170056 64 171 0.0 0.0 0.00 0.00 0.00 63 1023.8
20260509164549 63 259 0.0 0.0 0.00 0.00 0.00 66 1023.9
20260509163041 62 266 0.0 0.0 0.00 0.00 0.00 66 1024.2
20260509161541 61 256 0.0 0.0 0.00 0.00 0.00 66 1024.5
20260509160036 60 263 0.0 0.0 0.00 0.00 0.00 68 1024.5
20260509154532 58 229 0.0 0.0 0.00 0.00 0.00 74 1024.6
20260509153032 56 256 0.0 0.0 0.00 0.00 0.00 78 1024.8
20260509151523 54 236 0.0 0.0 0.00 0.00 0.00 83 1025.0
20260509150022 53 82 0.0 0.0 0.00 0.00 0.00 87 1025.1
20260509144521 51 82 0.0 0.0 0.00 0.00 0.00 90 1025.2
20260509143021 49 82 0.0 0.0 0.00 0.00 0.00 90 1025.3
20260509141520 49 82 0.0 0.0 0.00 0.00 0.00 91 1025.2
20260509140019 47 82 0.0 0.0 0.00 0.00 0.00 92 1025.2
20260509134519 46 82 0.0 0.0 0.00 0.00 0.00 92 1025.2
20260509133017 45 82 0.0 0.0 0.00 0.00 0.00 92 1024.9
20260509131516 45 82 0.0 0.0 0.00 0.00 0.00 92 1025.0
20260509130042 45 82 0.0 0.0 0.00 0.00 0.00 91 1025.1
20260509124527 45 82 0.0 0.0 0.00 0.00 0.00 91 1025.1
20260509123012 46 82 0.0 0.0 0.00 0.00 0.00 90 1025.2
20260509121510 46 82 0.0 0.0 0.00 0.00 0.00 90 1025.2
20260509120014 46 82 0.0 0.0 0.00 0.00 0.00 90 1025.0
20260509114507 47 82 0.0 0.0 0.00 0.00 0.00 89 1025.1
20260509113004 47 86 0.0 0.0 0.00 0.00 0.00 87 1025.3
20260509111601 48 86 0.0 0.0 0.00 0.00 0.00 87 1025.5
20260509104559 48 95 0.0 0.0 0.00 0.00 0.00 87 1025.4
20260509103107 49 95 0.0 0.0 0.00 0.00 0.00 86 1025.6
20260509101602 49 98 0.0 0.0 0.00 0.00 0.00 86 1025.6
20260509100054 49 98 0.0 0.0 0.00 0.00 0.00 86 1025.6
20260509094558 50 98 0.0 0.0 0.00 0.00 0.00 85 1025.6
20260509093050 50 98 0.0 0.0 0.00 0.00 0.00 86 1025.7
20260509091553 50 99 0.0 0.0 0.00 0.00 0.00 85 1025.7
20260509090048 50 103 0.0 0.0 0.00 0.00 0.00 85 1025.7
20260509084552 51 103 0.0 0.0 0.00 0.00 0.00 84 1026.0
20260509083044 51 103 0.0 0.0 0.00 0.00 0.00 83 1026.0
20260509081542 51 103 0.0 0.0 0.00 0.00 0.00 82 1026.0
20260509080045 52 103 0.0 0.0 0.00 0.00 0.00 81 1026.0
20260509074538 53 107 0.0 0.0 0.00 0.00 0.00 79 1026.0
20260509073035 53 107 0.0 0.0 0.00 0.00 0.00 79 1025.9
20260509071533 54 107 0.0 0.0 0.00 0.00 0.00 78 1025.9
20260509070031 54 107 0.0 0.0 0.00 0.00 0.00 77 1026.0
20260509064531 54 113 0.0 0.0 0.00 0.00 0.00 76 1025.9
20260509063034 55 113 0.0 0.0 0.00 0.00 0.00 76 1025.9